User: anonymous   Login
Location: Newark
(48.9320°N, 2.2664°E)
Time: 13:58:49
(UTC+00:00)
Language:

Tiros 1 despin weight - Orbit

View from above orbital plane
View from above orbital plane
View from above satellite
View from above satellite

Ground track
Ground track

The orbit data is extracted from the following two-line orbital elements,

1   115U 60002D   20047.68949404 -.00000078  00000-0  17923-4 0  9994
2   115  48.1664 139.7272 0033930  72.5242 287.9374 14.83536578194890
Epoch (UTC): 16 February 2020 16:32:52
Eccentricity: 0.0033930
inclination: 48.1664°
perigee height: 594 km
apogee height: 642 km
right ascension of ascending node: 139.7272°
argument of perigee: 72.5242°
revolutions per day: 14.83536578
mean anomaly at epoch: 287.9374°
orbit number at epoch: 19489

The dashed part of the orbit path shows where the satellite is in the earth's shadow,  

DLR